Vorticity
6 4 3 3 4 5 7 8 9 10 10 10 12 13 14 14 14 13 12 12 12 11 11 11 12 13 15 16 17 17 17 18 19 20 20 20 17 14 11 10 11 11 13 15 17 15 13 13 21 28 32 34 32 29 26 24 23 22 23 23 24 26 27 27 24 20 16 13 12
7 5 3 3 4 5 7 9 10 10 11 11 11 12 13 15 14 14 13 12 12 11 11 12 14 16 17 18 18 18 18 19 20 21 22 21 19 16 13 11 11 11 12 13 16 16 14 9 13 18 22 23 21 19 18 18 19 20 21 23 24 24 23 21 18 15 12 10 11
7 5 4 3 5 6 8 9 10 11 12 12 12 12 13 15 15 15 14 13 12 12 12 14 16 17 18 17 18 18 19 20 21 22 23 22 21 18 15 13 12 12 12 13 15 16 15 11 10 12 16 19 19 17 16 16 17 18 19 20 20 19 18 16 13 12 11 11 12
6 5 4 4 6 7 8 9 10 11 12 13 12 12 13 14 15 16 15 14 13 13 14 15 16 16 15 14 15 16 18 20 21 22 23 23 22 20 17 15 13 13 13 13 14 16 16 14 10 9 11 14 15 16 16 15 16 16 17 17 17 16 15 14 13 13 13 14 15
6 5 5 5 6 7 8 8 10 12 14 14 14 13 13 15 16 16 16 15 15 15 15 15 14 11 9 8 9 11 14 16 19 21 23 24 23 22 20 17 14 13 13 14 15 15 15 15 13 11 9 8 9 11 12 13 14 15 15 16 16 16 16 16 16 16 17 17 17
6 6 5 6 7 7 8 8 10 13 15 16 15 15 14 15 16 17 17 17 16 16 15 13 9 6 4 3 4 5 7 10 14 18 21 23 24 23 21 19 16 14 13 14 15 15 15 15 15 13 11 8 7 7 7 9 11 12 13 13 14 14 15 15 14 13 12 10 8
6 6 6 7 7 7 7 8 11 13 16 17 16 15 15 16 17 18 18 18 17 15 13 9 5 2 0 -0 0 0 2 3 7 11 16 20 22 23 23 22 18 16 14 14 15 15 15 16 15 15 14 12 10 8 7 8 9 10 11 11 11 11 11 10 10 9 8 6 7
7 7 7 8 8 7 7 8 11 13 15 16 15 15 16 16 17 18 18 18 16 13 9 5 2 -0 -1 -1 -1 -1 -1 0 2 5 9 14 18 21 23 24 22 19 17 16 16 15 15 16 16 16 15 14 12 11 10 9 9 10 11 12 11 11 10 11 12 13 14 15 15
8 8 8 8 8 7 7 8 10 12 14 14 14 14 14 15 17 18 18 18 15 11 7 3 0 -1 -1 -1 -1 -1 -0 0 1 2 4 8 12 16 20 22 23 23 22 20 19 18 17 17 17 17 17 16 15 14 13 12 11 11 11 11 10 9 9 10 13 16 18 20 21
9 9 9 8 8 7 7 8 9 10 11 11 10 11 11 13 15 17 18 17 14 10 6 2 0 -0 -0 -1 -0 -0 0 1 2 3 3 4 7 10 14 17 20 22 24 25 25 24 22 21 20 20 20 20 19 19 18 17 15 13 11 10 9 8 8 9 11 14 16 19 20
10 9 9 8 8 7 7 7 8 8 8 7 7 7 8 9 11 14 16 17 15 11 7 3 2 1 1 0 0 1 1 3 5 6 6 4 4 5 8 10 13 16 19 23 25 27 27 25 24 22 22 21 21 21 21 21 20 19 18 17 15 14 13 13 14 13 13 13 13
10 9 9 8 8 7 7 7 7 6 5 4 4 4 4 5 7 10 13 15 15 14 10 7 5 3 2 2 2 2 2 4 7 10 11 8 4 3 4 6 7 8 11 15 19 23 26 27 25 23 21 20 20 19 20 20 22 23 25 25 25 23 20 17 15 13 12 11 10
10 9 9 8 8 8 7 7 6 5 4 3 2 2 2 2 3 5 8 12 14 15 14 12 10 7 6 4 4 3 3 4 8 13 15 13 6 2 3 5 5 4 4 5 10 15 20 23 24 23 21 18 16 13 11 10 11 13 17 21 24 26 26 24 21 18 16 15 15
10 9 9 8 8 8 7 6 6 5 4 3 2 2 2 2 2 3 5 8 11 14 16 17 15 13 11 9 7 6 5 5 8 13 16 15 6 2 2 6 7 6 3 1 3 7 11 16 19 20 19 16 11 6 2 -1 -1 -0 1 5 9 14 18 21 21 21 20 20 19
9 9 8 8 8 8 7 6 5 4 4 3 4 4 4 3 3 3 3 5 8 12 15 18 18 17 15 14 12 10 8 7 8 11 13 12 6 2 2 6 8 9 8 5 3 3 5 9 12 14 15 13 10 6 3 1 -0 -1 -2 -2 -1 2 5 7 8 9 10 11 11
9 8 8 8 8 8 7 6 5 5 5 5 5 6 6 6 5 5 4 4 6 9 12 15 17 18 17 16 15 13 12 10 10 10 10 8 4 3 3 6 7 10 12 13 9 4 2 4 7 9 11 11 10 9 8 8 7 6 5 4 2 2 3 4 4 3 3 2 3
8 8 8 8 8 8 7 6 6 5 5 6 6 7 7 8 7 7 6 6 6 8 9 12 14 15 16 16 16 15 15 14 13 12 10 8 6 5 6 7 7 8 11 16 15 10 5 2 3 5 7 9 10 10 10 10 10 11 11 11 10 9 8 7 7 6 4 3 3
8 8 8 8 8 8 7 7 6 6 6 6 7 8 8 9 9 9 8 7 7 8 9 10 11 12 12 13 13 14 15 16 15 15 13 11 10 10 10 10 8 7 7 10 14 13 10 5 3 3 4 6 7 7 7 7 8 9 9 10 11 11 11 10 8 7 6 5 5
8 8 8 8 8 8 8 8 7 7 7 7 7 8 8 10 10 10 9 8 7 8 8 8 8 8 9 9 10 11 13 14 15 15 15 14 14 13 13 12 10 7 4 3 6 8 9 9 7 5 4 4 4 4 4 3 4 4 4 5 5 6 8 9 9 8 7 6 5
8 8 8 8 8 8 9 9 8 8 7 7 7 8 9 10 11 10 9 7 6 6 6 7 7 7 7 7 8 8 9 11 12 13 14 14 14 14 14 13 11 8 4 -0 -2 -0 3 7 8 8 7 6 6 5 4 3 2 2 3 3 4 5 6 7 8 8 8 7 6
8 8 8 8 9 9 10 10 9 9 8 8 8 9 10 11 11 10 9 7 5 5 5 5 6 6 6 7 7 7 8 9 10 10 11 12 12 12 12 12 11 9 6 2 -1 -2 -1 2 5 7 8 8 8 8 8 7 7 7 7 8 10 12 13 14 13 11 9 7 7
8 8 9 9 10 10 10 11 10 10 9 9 9 10 11 12 11 10 9 7 6 6 5 5 6 7 8 8 9 9 9 9 10 10 10 11 11 11 11 12 12 11 10 8 5 3 3 4 5 6 6 7 7 8 9 10 11 11 12 13 14 16 18 21 21 20 17 13 10
9 10 10 11 11 12 11 11 11 11 11 11 11 12 12 12 11 10 9 9 9 9 8 8 8 9 10 11 11 11 11 11 11 11 11 11 11 11 12 12 12 12 12 12 11 10 9 9 9 8 8 7 6 6 7 8 10 11 12 12 13 13 15 17 21 23 24 23 20
10 11 12 12 13 12 12 12 12 12 12 12 13 13 13 12 11 11 11 12 12 12 11 11 11 12 12 12 12 11 11 11 11 11 11 11 11 11 11 11 12 12 12 13 13 13 12 12 12 11 10 10 9 8 8 8 8 9 9 9 8 8 8 9 12 15 19 23 24
11 12 12 13 13 12 12 12 12 13 13 13 13 13 13 13 12 13 13 14 15 14 14 13 12 12 11 10 10 9 9 9 8 8 8 9 9 9 9 9 9 9 10 10 11 11 11 11 11 11 11 11 11 10 10 10 10 9 9 8 7 5 5 5 6 7 10 13 17
11 12 12 12 12 12 12 12 13 13 13 13 13 13 13 13 14 14 15 15 15 14 13 12 10 9 8 8 7 7 7 6 6 6 6 6 6 6 6 6 6 6 6 7 7 7 8 8 8 8 9 9 9 9 9 9 10 10 10 10 9 8 6 5 4 4 5 6 8
11 11 11 11 11 11 12 12 13 13 13 14 14 14 14 15 15 15 15 15 14 12 11 9 8 7 6 6 6 6 6 6 6 6 5 5 5 5 6 5 5 5 5 5 5 5 5 5 6 6 6 7 7 7 7 7 8 8 9 10 11 11 10 8 7 5 4 4 4
10 10 10 10 11 12 12 13 13 14 14 14 14 15 15 16 16 15 14 13 11 9 8 7 6 6 6 6 6 6 6 6 6 7 6 6 6 6 6 6 6 6 5 5 5 5 5 5 5 5 6 6 6 6 6 6 6 6 7 8 9 10 11 12 11 10 8 5 4
10 10 10 11 12 12 13 14 14 15 15 15 15 16 16 16 15 13 11 9 8 7 6 5 5 6 6 6 6 7 7 7 7 7 7 7 7 7 7 7 7 6 6 6 6 6 6 6 6 6 6 6 7 7 7 7 6 6 7 7 8 9 9 10 11 12 12 11 8
10 10 11 12 13 13 14 15 15 15 15 16 16 15 14 13 11 10 8 7 6 6 5 5 5 6 6 7 6 7 7 8 8 8 8 8 7 7 7 7 7 7 6 6 6 6 6 6 7 7 8 8 8 8 8 8 8 8 8 8 8 8 8 9 9 10 11 12 12
10 12 13 13 14 15 15 16 16 16 16 15 14 13 11 9 8 7 6 5 5 5 4 5 5 6 6 6 6 7 7 7 7 8 8 7 7 7 7 6 6 6 6 6 6 6 6 7 8 8 9 10 11 11 11 11 10 10 9 9 9 9 9 9 9 9 9 10 11
12 13 14 15 16 16 16 16 16 15 14 13 11 9 8 7 6 5 5 4 4 4 4 5 5 5 5 6 6 6 7 7 7 8 8 8 7 7 6 6 6 6 6 6 6 6 7 8 9 10 11 12 14 14 15 14 13 12 11 11 11 11 11 11 11 11 10 10 10
13 14 15 16 16 16 16 15 14 13 11 10 8 7 6 5 5 4 4 4 4 4 4 4 5 5 5 5 6 6 7 8 8 8 8 8 8 7 7 6 6 6 6 6 6 7 8 9 11 12 14 16 17 18 18 18 17 16 15 14 14 13 13 14 14 13 13 13 12
14 15 16 16 16 15 14 13 12 10 8 7 6 5 5 4 4 4 4 4 4 4 4 4 4 5 5 6 6 7 7 8 8 9 9 9 8 8 7 6 6 6 6 6 7 8 10 12 15 17 19 20 21 22 22 22 22 21 20 19 18 17 16 16 17 17 16 16 15
15 15 16 15 15 13 12 10 9 8 6 6 5 4 4 4 4 4 3 3 3 4 4 5 5 5 6 6 7 7 8 8 9 9 9 9 8 7 6 6 6 6 6 7 9 11 14 17 20 22 24 25 25 25 25 25 25 25 24 24 22 21 20 19 19 19 20 20 19
15 15 15 14 13 11 10 8 7 6 5 5 4 4 4 4 4 3 3 3 3 4 5 5 6 6 6 7 7 8 8 9 9 10 9 9 7 6 6 6 6 6 7 9 12 16 19 23 26 28 29 29 29 28 28 27 26 26 26 26 25 24 22 21 20 21 21 22 23
15 14 13 12 11 9 8 7 6 5 5 4 4 3 3 3 3 3 3 3 4 5 6 6 6 7 7 7 7 8 9 10 10 9 9 8 7 6 6 6 6 7 9 12 17 21 25 29 31 31 32 31 30 29 28 27 26 26 26 27 26 25 24 23 22 21 22 23 24
14 13 12 10 9 8 7 6 5 5 4 3 3 3 3 3 3 4 4 4 5 5 6 6 7 7 7 7 8 8 9 10 10 9 8 7 6 6 6 6 7 9 12 17 22 26 30 32 33 33 32 31 30 29 27 26 25 25 25 26 26 25 25 23 23 22 22 22 23
13 12 10 9 8 7 6 5 5 4 3 2 3 3 3 3 4 4 4 5 5 5 6 6 7 7 7 7 8 8 9 10 10 9 8 6 6 6 6 7 9 12 16 22 27 30 32 33 32 31 31 30 29 28 27 26 25 25 25 25 25 24 24 23 22 22 21 21 21
12 10 9 8 7 6 5 4 4 3 3 2 3 3 3 4 4 4 5 5 6 6 6 6 7 7 7 8 8 9 10 10 10 9 8 6 6 6 7 9 12 16 21 27 31 32 32 30 28 27 26 27 27 27 27 26 26 26 25 25 24 23 22 21 21 20 20 19 19
11 9 8 7 6 5 4 4 3 2 2 2 3 3 3 4 4 4 5 5 6 6 6 6 7 7 8 8 9 9 10 10 10 9 8 6 6 7 8 11 15 20 25 31 32 30 27 24 21 21 21 23 24 26 27 27 27 26 25 24 23 22 21 20 19 19 18 18 18
Height
5692 5690 5687 5685 5682 5679 5676 5673 5670 5666 5663 5660 5657 5654 5650 5647 5644 5641 5637 5634 5631 5627 5624 5621 5617 5613 5609 5605 5601 5596 5591 5586 5581 5576 5571 5567 5563 5559 5555 5550 5546 5541 5536 5531 5526 5521 5517 5512 5507 5501 5497 5493 5491 5489 5488 5487 5486 5486 5487 5487 5489 5490 5491 5493 5495 5496 5498 5500 5502
5692 5689 5687 5685 5682 5679 5676 5673 5669 5666 5663 5660 5656 5653 5650 5647 5643 5640 5637 5634 5631 5627 5624 5621 5617 5613 5610 5606 5601 5596 5591 5586 5581 5577 5572 5568 5564 5560 5556 5551 5547 5542 5538 5533 5529 5525 5521 5517 5512 5507 5503 5499 5496 5494 5493 5493 5492 5492 5492 5493 5493 5494 5495 5496 5498 5500 5501 5503 5504
5691 5689 5687 5684 5681 5679 5676 5672 5669 5666 5663 5660 5656 5653 5650 5646 5643 5640 5637 5634 5631 5627 5624 5621 5617 5614 5610 5606 5601 5597 5592 5587 5582 5577 5573 5568 5564 5561 5556 5552 5548 5544 5540 5535 5531 5528 5524 5521 5516 5512 5508 5505 5502 5500 5498 5498 5497 5497 5497 5498 5498 5499 5500 5501 5501 5503 5504 5505 5506
5691 5688 5686 5684 5681 5678 5676 5672 5669 5666 5663 5660 5656 5653 5650 5646 5643 5640 5637 5634 5631 5627 5624 5621 5618 5614 5611 5606 5602 5597 5593 5588 5583 5579 5574 5570 5566 5562 5558 5554 5550 5546 5541 5537 5534 5530 5527 5524 5520 5517 5513 5510 5507 5505 5503 5502 5501 5501 5501 5501 5502 5502 5503 5504 5505 5506 5507 5508 5509
5690 5688 5686 5683 5681 5678 5675 5672 5669 5666 5663 5660 5656 5653 5650 5647 5644 5640 5637 5634 5631 5628 5625 5621 5618 5615 5611 5607 5603 5598 5594 5589 5585 5580 5576 5571 5567 5563 5560 5556 5551 5547 5543 5540 5536 5533 5530 5527 5524 5521 5517 5514 5511 5510 5508 5506 5506 5505 5505 5505 5505 5506 5506 5507 5508 5509 5510 5511 5513
5690 5688 5686 5683 5681 5678 5675 5672 5669 5666 5663 5660 5656 5653 5650 5647 5644 5641 5637 5634 5631 5628 5625 5622 5619 5615 5611 5607 5604 5599 5595 5591 5586 5582 5577 5573 5569 5565 5561 5557 5553 5549 5546 5542 5539 5536 5533 5530 5527 5525 5521 5519 5516 5514 5512 5511 5510 5509 5509 5509 5509 5509 5510 5510 5511 5512 5514 5515 5516
5689 5687 5685 5683 5680 5677 5675 5672 5669 5666 5663 5660 5657 5654 5651 5647 5644 5641 5638 5635 5631 5629 5626 5622 5619 5616 5612 5608 5604 5600 5596 5592 5588 5584 5580 5575 5571 5567 5563 5559 5555 5551 5548 5544 5541 5538 5536 5533 5530 5527 5525 5523 5521 5519 5517 5516 5515 5514 5513 5513 5513 5513 5514 5515 5516 5516 5517 5517 5518
5689 5687 5685 5682 5680 5677 5675 5672 5669 5666 5663 5660 5657 5654 5651 5648 5645 5641 5638 5635 5632 5629 5626 5623 5620 5616 5612 5609 5605 5601 5597 5594 5590 5586 5582 5578 5573 5569 5566 5561 5558 5554 5550 5547 5544 5541 5538 5535 5533 5530 5528 5526 5524 5522 5521 5520 5519 5519 5519 5519 5518 5517 5517 5517 5518 5518 5518 5519 5520
5688 5686 5684 5682 5680 5677 5675 5672 5669 5666 5663 5661 5657 5655 5651 5648 5645 5642 5639 5636 5632 5629 5626 5623 5620 5616 5613 5609 5606 5602 5598 5595 5591 5588 5584 5580 5576 5572 5568 5564 5560 5556 5553 5550 5546 5544 5541 5538 5536 5533 5531 5529 5528 5526 5525 5524 5524 5523 5523 5522 5521 5520 5520 5520 5520 5520 5520 5520 5521
5688 5686 5684 5682 5679 5677 5675 5672 5669 5666 5664 5661 5658 5655 5652 5649 5646 5642 5639 5636 5633 5630 5627 5624 5621 5617 5614 5610 5606 5603 5599 5596 5592 5589 5586 5582 5578 5575 5571 5567 5563 5560 5556 5553 5550 5547 5544 5541 5539 5537 5535 5533 5531 5530 5529 5528 5527 5526 5525 5524 5523 5523 5523 5523 5523 5523 5523 5523 5523
5688 5686 5684 5681 5679 5677 5674 5672 5669 5667 5664 5661 5658 5655 5652 5649 5646 5643 5640 5636 5633 5631 5628 5625 5621 5618 5615 5611 5608 5604 5601 5597 5594 5591 5587 5584 5581 5577 5574 5570 5566 5563 5560 5556 5553 5551 5548 5545 5543 5541 5538 5537 5535 5534 5532 5531 5530 5529 5528 5527 5527 5526 5526 5526 5526 5526 5526 5526 5526
5687 5686 5683 5681 5679 5677 5674 5672 5670 5667 5664 5661 5659 5656 5653 5650 5646 5643 5640 5637 5634 5631 5628 5625 5622 5619 5616 5612 5609 5606 5602 5599 5596 5593 5589 5586 5583 5580 5576 5573 5570 5566 5563 5560 5557 5554 5551 5549 5546 5544 5542 5540 5539 5537 5536 5535 5534 5532 5532 5531 5530 5530 5529 5529 5528 5528 5528 5529 5529
5687 5685 5683 5681 5679 5676 5674 5672 5670 5667 5665 5662 5659 5656 5653 5650 5647 5644 5641 5638 5635 5632 5629 5626 5623 5620 5617 5614 5611 5607 5604 5601 5597 5594 5591 5588 5585 5582 5579 5575 5572 5569 5566 5563 5560 5557 5555 5552 5550 5547 5546 5544 5542 5541 5540 5539 5537 5536 5536 5534 5533 5533 5532 5531 5531 5531 5530 5530 5531
5687 5685 5683 5681 5679 5676 5674 5672 5670 5667 5665 5662 5660 5657 5654 5651 5648 5645 5642 5639 5636 5633 5630 5627 5624 5621 5617 5615 5611 5608 5605 5602 5599 5596 5593 5590 5587 5584 5581 5578 5575 5572 5569 5566 5563 5561 5558 5556 5554 5551 5550 5548 5546 5544 5543 5542 5541 5540 5538 5537 5536 5536 5535 5535 5534 5534 5533 5533 5533
5687 5685 5683 5681 5678 5676 5674 5672 5670 5667 5665 5662 5660 5657 5654 5651 5648 5646 5643 5640 5637 5634 5631 5627 5625 5621 5618 5615 5612 5609 5606 5603 5601 5598 5595 5592 5589 5586 5583 5580 5577 5574 5572 5569 5566 5563 5561 5559 5557 5555 5553 5551 5550 5548 5546 5545 5543 5542 5541 5539 5539 5538 5538 5537 5536 5536 5535 5535 5535
5687 5685 5683 5681 5678 5676 5674 5672 5670 5667 5665 5663 5660 5657 5655 5652 5649 5646 5643 5641 5637 5635 5631 5629 5626 5622 5619 5616 5613 5610 5607 5605 5602 5599 5596 5594 5591 5588 5585 5582 5580 5577 5574 5572 5569 5566 5564 5561 5559 5558 5556 5554 5553 5551 5549 5548 5546 5545 5543 5542 5541 5541 5541 5540 5539 5538 5537 5537 5536
5686 5685 5682 5681 5678 5676 5674 5672 5670 5668 5665 5663 5660 5658 5655 5652 5649 5647 5644 5641 5638 5636 5633 5630 5626 5623 5621 5617 5614 5611 5609 5606 5603 5601 5598 5596 5593 5590 5587 5584 5582 5579 5577 5574 5572 5569 5566 5564 5562 5560 5558 5556 5555 5554 5552 5551 5550 5548 5546 5546 5545 5544 5543 5543 5542 5541 5541 5540 5539
5686 5685 5682 5681 5678 5676 5674 5672 5670 5668 5666 5663 5661 5658 5655 5653 5650 5647 5645 5642 5639 5636 5634 5631 5628 5625 5621 5619 5616 5613 5610 5607 5605 5602 5599 5597 5594 5591 5589 5586 5583 5581 5579 5576 5574 5572 5570 5567 5565 5562 5561 5559 5557 5556 5555 5554 5552 5551 5550 5548 5547 5546 5545 5545 5544 5543 5543 5543 5542
5686 5684 5682 5681 5678 5676 5674 5672 5670 5668 5666 5663 5661 5658 5656 5653 5651 5648 5645 5642 5640 5637 5634 5631 5629 5626 5623 5620 5617 5614 5611 5608 5606 5603 5601 5598 5595 5593 5590 5587 5585 5583 5581 5578 5576 5574 5572 5570 5567 5565 5563 5561 5559 5558 5556 5555 5554 5553 5552 5551 5549 5548 5547 5546 5546 5545 5544 5544 5543
5686 5684 5682 5681 5678 5676 5674 5672 5670 5668 5666 5663 5661 5658 5656 5653 5651 5648 5646 5643 5640 5637 5635 5632 5629 5627 5624 5621 5618 5615 5612 5610 5607 5604 5602 5599 5596 5594 5591 5589 5586 5584 5582 5580 5578 5576 5574 5572 5570 5568 5566 5564 5561 5560 5558 5557 5556 5554 5553 5552 5551 5550 5548 5547 5546 5546 5545 5544 5544
5686 5684 5682 5680 5678 5676 5674 5672 5670 5668 5666 5663 5661 5659 5656 5654 5651 5649 5646 5644 5641 5638 5636 5633 5630 5628 5625 5622 5620 5617 5614 5611 5608 5606 5603 5600 5597 5595 5592 5590 5588 5586 5583 5581 5579 5577 5576 5574 5571 5570 5568 5566 5564 5562 5560 5559 5557 5556 5554 5553 5552 5551 5550 5548 5547 5546 5546 5545 5544
5686 5684 5682 5680 5678 5676 5674 5672 5670 5668 5666 5663 5661 5659 5656 5654 5652 5649 5647 5645 5642 5639 5636 5634 5631 5629 5626 5624 5621 5618 5615 5612 5609 5607 5604 5601 5599 5596 5594 5591 5589 5587 5585 5583 5581 5579 5577 5575 5573 5571 5569 5567 5565 5564 5562 5560 5559 5557 5556 5554 5553 5551 5551 5549 5548 5547 5546 5546 5544
5686 5684 5682 5680 5678 5676 5674 5672 5670 5668 5666 5664 5661 5659 5657 5655 5652 5650 5648 5645 5642 5640 5637 5635 5633 5630 5627 5625 5622 5619 5616 5613 5611 5608 5605 5603 5600 5597 5595 5592 5590 5588 5586 5584 5582 5580 5578 5576 5574 5572 5570 5568 5566 5564 5563 5561 5560 5558 5557 5555 5554 5552 5551 5550 5549 5548 5547 5546 5545
5686 5684 5682 5680 5678 5676 5674 5672 5670 5668 5666 5664 5662 5660 5658 5656 5653 5651 5648 5646 5643 5641 5639 5636 5634 5631 5628 5626 5623 5620 5617 5615 5612 5609 5607 5604 5601 5599 5596 5594 5592 5590 5588 5586 5583 5581 5579 5576 5575 5572 5571 5569 5567 5565 5563 5562 5560 5559 5557 5556 5554 5553 5551 5550 5549 5548 5547 5546 5545
5686 5684 5682 5680 5678 5676 5674 5672 5671 5668 5666 5664 5662 5660 5658 5656 5654 5651 5649 5647 5644 5642 5640 5637 5635 5632 5630 5627 5624 5621 5619 5616 5613 5611 5608 5606 5603 5601 5598 5596 5593 5591 5589 5587 5585 5582 5580 5577 5575 5573 5571 5569 5567 5566 5564 5562 5560 5559 5557 5556 5554 5553 5552 5551 5549 5548 5547 5546 5545
5686 5684 5682 5680 5678 5676 5675 5673 5671 5669 5667 5665 5663 5661 5659 5657 5655 5652 5650 5648 5645 5643 5641 5638 5636 5633 5630 5628 5625 5622 5620 5617 5615 5612 5610 5607 5605 5602 5600 5597 5595 5593 5591 5588 5586 5583 5581 5579 5576 5574 5572 5570 5568 5566 5564 5562 5561 5559 5557 5556 5554 5553 5552 5551 5549 5548 5547 5546 5544
5686 5684 5682 5680 5679 5677 5675 5673 5671 5669 5667 5666 5664 5662 5660 5657 5655 5653 5651 5649 5646 5644 5641 5639 5637 5634 5631 5629 5626 5624 5621 5618 5616 5613 5611 5608 5606 5604 5601 5599 5596 5594 5591 5589 5587 5584 5582 5580 5577 5575 5573 5571 5568 5566 5565 5562 5561 5559 5557 5556 5554 5553 5551 5550 5549 5548 5546 5545 5544
5686 5684 5682 5681 5679 5677 5675 5673 5671 5670 5668 5666 5664 5662 5660 5658 5656 5654 5651 5650 5647 5645 5643 5640 5637 5635 5632 5630 5627 5625 5622 5620 5617 5615 5612 5610 5607 5605 5602 5600 5597 5595 5592 5590 5588 5585 5583 5580 5578 5576 5573 5571 5569 5566 5565 5563 5561 5559 5557 5556 5554 5552 5551 5550 5549 5547 5546 5545 5543
5686 5684 5683 5681 5679 5677 5676 5674 5672 5671 5669 5667 5665 5663 5661 5659 5656 5655 5652 5651 5648 5646 5644 5641 5638 5636 5633 5631 5628 5626 5623 5621 5618 5616 5613 5611 5608 5606 5603 5601 5598 5596 5593 5591 5588 5586 5583 5581 5578 5576 5573 5571 5569 5566 5564 5562 5560 5558 5556 5555 5553 5552 5551 5549 5548 5547 5545 5544 5543
5686 5685 5683 5681 5680 5678 5676 5675 5673 5671 5669 5667 5666 5663 5661 5659 5657 5655 5653 5651 5649 5647 5644 5642 5639 5636 5634 5631 5629 5626 5624 5622 5619 5617 5614 5612 5609 5607 5604 5602 5599 5596 5594 5591 5589 5586 5584 5581 5578 5576 5573 5571 5568 5566 5564 5561 5559 5557 5556 5554 5552 5551 5550 5548 5547 5546 5544 5543 5542
5686 5685 5683 5682 5680 5678 5677 5675 5673 5672 5670 5668 5666 5664 5662 5660 5658 5656 5654 5652 5650 5647 5645 5642 5640 5637 5635 5633 5630 5628 5625 5623 5620 5618 5615 5613 5611 5608 5605 5602 5600 5597 5594 5591 5589 5586 5584 5581 5578 5576 5573 5570 5567 5565 5563 5561 5558 5556 5554 5552 5551 5550 5548 5547 5546 5544 5543 5542 5541
5687 5686 5684 5682 5681 5679 5677 5676 5674 5672 5671 5669 5666 5665 5663 5661 5659 5657 5655 5653 5651 5648 5646 5643 5641 5639 5636 5634 5631 5629 5626 5624 5621 5619 5616 5614 5611 5609 5606 5603 5600 5597 5595 5592 5589 5586 5583 5581 5577 5575 5572 5569 5566 5564 5561 5559 5557 5555 5553 5551 5549 5548 5546 5545 5544 5543 5542 5541 5540
5687 5686 5684 5683 5681 5680 5678 5676 5675 5673 5671 5669 5667 5666 5664 5662 5660 5658 5656 5654 5651 5649 5647 5645 5642 5640 5637 5635 5633 5630 5628 5625 5622 5620 5617 5615 5612 5609 5606 5603 5601 5598 5595 5592 5589 5586 5583 5580 5576 5573 5570 5567 5565 5562 5560 5557 5555 5553 5551 5549 5548 5546 5545 5543 5542 5541 5540 5539 5538
5688 5686 5685 5683 5682 5680 5679 5677 5676 5674 5672 5670 5668 5666 5665 5663 5661 5659 5657 5655 5653 5651 5648 5646 5643 5641 5639 5636 5634 5631 5629 5626 5623 5621 5618 5615 5612 5610 5607 5604 5601 5598 5595 5592 5589 5586 5582 5579 5576 5572 5569 5566 5563 5561 5558 5556 5554 5551 5550 5548 5546 5545 5543 5542 5541 5540 5539 5538 5537
5688 5687 5686 5684 5683 5681 5679 5678 5676 5674 5673 5671 5669 5667 5666 5664 5662 5660 5658 5656 5654 5651 5649 5647 5645 5642 5640 5637 5635 5632 5630 5627 5624 5621 5618 5616 5613 5610 5607 5605 5601 5598 5595 5591 5588 5585 5581 5578 5574 5571 5567 5564 5561 5559 5556 5554 5552 5550 5548 5547 5545 5543 5542 5541 5540 5539 5538 5537 5536
5689 5688 5686 5685 5683 5682 5680 5679 5677 5675 5673 5672 5670 5669 5667 5665 5663 5661 5659 5657 5655 5653 5650 5648 5646 5643 5641 5638 5636 5633 5630 5627 5625 5622 5619 5616 5614 5611 5608 5605 5601 5598 5595 5591 5588 5584 5580 5576 5573 5569 5566 5563 5560 5558 5555 5553 5551 5549 5547 5546 5544 5543 5541 5540 5539 5538 5537 5536 5535
5690 5688 5687 5686 5684 5682 5681 5679 5678 5676 5675 5673 5671 5670 5668 5666 5664 5662 5660 5658 5656 5654 5651 5649 5646 5644 5642 5639 5636 5634 5631 5628 5626 5623 5620 5617 5614 5611 5608 5605 5602 5598 5594 5591 5587 5583 5579 5575 5572 5568 5565 5562 5560 5557 5555 5552 5551 5548 5547 5545 5544 5542 5541 5540 5538 5537 5536 5536 5535
5690 5689 5688 5686 5685 5683 5681 5680 5678 5677 5676 5674 5673 5671 5669 5667 5666 5663 5661 5659 5657 5655 5652 5650 5648 5645 5643 5640 5637 5635 5632 5629 5626 5623 5621 5618 5615 5612 5609 5605 5602 5598 5594 5590 5586 5582 5578 5575 5571 5568 5565 5562 5560 5557 5555 5552 5551 5549 5547 5545 5544 5542 5541 5540 5538 5537 5536 5535 5534
5691 5690 5688 5687 5686 5684 5682 5681 5680 5678 5677 5675 5674 5672 5670 5668 5666 5664 5662 5660 5658 5656 5653 5651 5649 5646 5643 5641 5638 5635 5633 5630 5627 5624 5621 5619 5615 5612 5609 5606 5602 5598 5594 5590 5586 5581 5578 5575 5571 5568 5566 5563 5560 5557 5555 5553 5551 5549 5548 5546 5544 5543 5541 5540 5539 5538 5536 5536 5534
5691 5690 5689 5687 5686 5685 5683 5682 5681 5679 5678 5676 5675 5673 5671 5670 5667 5665 5663 5661 5659 5656 5654 5652 5650 5647 5644 5642 5639 5636 5634 5631 5628 5625 5622 5619 5616 5612 5609 5606 5602 5598 5593 5589 5586 5582 5578 5575 5572 5569 5566 5564 5561 5559 5556 5554 5552 5551 5549 5547 5546 5544 5542 5541 5540 5538 5537 5536 5535
5692 5691 5690 5688 5687 5686 5684 5683 5682 5680 5679 5677 5676 5674 5672 5670 5668 5666 5664 5662 5660 5658 5656 5653 5651 5648 5645 5643 5640 5637 5635 5632 5629 5626 5623 5620 5616 5613 5609 5606 5602 5598 5594 5590 5586 5582 5579 5576 5574 5571 5568 5565 5562 5560 5557 5556 5554 5552 5550 5548 5547 5545 5544 5542 5541 5540 5538 5537 5536